Hourly Data Report for March 12, 2021

NANAIMO A
BRITISH COLUMBIA
Current Station Operator: NAVCAN

49°03'16.000" N
123°52'12.000" W
28.00 m
1025365
YCD

Download Data

Hourly Data (March 2021)
Hourly Data Report for March 12, 2021
TIME
LST
Temp Definition
°C
Dew Point Definition
°C
Rel Hum Definition
%
Precip. Amount Definition
mm

Wind Dir Definition
10's deg

Wind Spd Definition
km/h
Visibility Definition
km
Stn Press Definition
kPa
Hmdx Definition


Wind Chill Definition


Weather Definition


00:00 0.0 -0.9 93 LegendMM 19 1 LegendMM 102.30   0 LegendNANA
01:00 -0.9 -1.6 95 LegendMM 0 1 LegendMM 102.34   -1 LegendNANA
02:00 -1.2 -2.0 94 LegendMM 20 4 LegendMM 102.33   -3 LegendNANA
03:00 -1.6 -2.4 94 LegendMM 17 2 LegendMM 102.31   -2 LegendNANA
04:00 -0.2 -1.2 93 LegendMM 28 2 LegendMM 102.31   -1 LegendNANA
05:00 0.0 -0.8 94 LegendMM 17 4 LegendMM 102.33   -1 LegendNANA
06:00 0.8 -0.6 90 LegendMM 21 1 LegendMM 102.34     LegendNANA
07:00 1.3 0.0 91 LegendMM 32 2 LegendMM 102.38     LegendNANA
08:00 3.0 0.9 86 LegendMM 23 3 LegendMM 102.43     LegendNANA
09:00 4.2 1.9 85 LegendMM 8 3 LegendMM 102.48     LegendNANA
10:00 6.0 1.5 73 LegendMM 13 8 LegendMM 102.46     LegendNANA
11:00 6.9 1.7 69 LegendMM 31 4 LegendMM 102.47     LegendNANA
12:00 8.7 1.4 60 LegendMM 5 7 LegendMM 102.43     LegendNANA
13:00 8.8 1.3 59 LegendMM 20 5 LegendMM 102.41     LegendNANA
14:00 9.3 3.0 65 LegendMM 35 1 LegendMM 102.37     LegendNANA
15:00 10.3 1.6 55 LegendMM 10 8 LegendMM 102.33     LegendNANA
16:00 10.3 0.0 49 LegendMM 12 6 LegendMM 102.30     LegendNANA
17:00 10.3 1.1 53 LegendMM 7 5 LegendMM 102.26     LegendNANA
18:00 8.7 1.9 62 LegendMM 6 5 LegendMM 102.24     LegendNANA
19:00 7.0 2.7 74 LegendMM 26 4 LegendMM 102.25     LegendNANA
20:00 6.2 3.1 81 LegendMM 30 4 LegendMM 102.27     LegendNANA
21:00 6.2 2.8 79 LegendMM 29 1 LegendMM 102.27     LegendNANA
22:00 6.1 2.6 78 LegendMM 32 2 LegendMM 102.24     LegendNANA
23:00 5.3 2.8 84 LegendMM 24 5 LegendMM 102.21     LegendNANA

Notes on Data Quality.

Legend

  • E = Estimated
  • M = Missing
  • NA = Not Available*
  • [empty] = Indicates an unobserved value
Date modified: